Flag for Paraguay Weather past 2 weeks in Asuncion, Paraguay

Now
79 °F

Clear.


Feels Like: 82 °F
Forecast: 81 / 97 °F
Wind: 3 mph from Northeast

Location: Asuncion / Aeropuerto

Current Time: Dec 27, 2014 at 5:04:33 AM

Latest Report: Dec 27, 2014 at 4:00 AM


Visibility: 10 mi

Pressure: 29.80 "Hg

Humidity: 89%

Dew point: 75 °F

Location of AsuncionLocation

Historic Weather in Asuncion — Graph

°F

Asuncion temperature yesterday

Maximum temperature yesterday: 97 °F (at 4:00 PM)
Minimum temperature yesterday: 79 °F (at 3:00 AM)
Average temperature yesterday: 87 °F

Past Weeks' High & Low Weather Summary

 TemperatureHumidityPressure
High97 °F (Dec 15, 5:00 PM)100% (Dec 13, 6:00 AM)30.09 "Hg (Dec 13, 6:00 AM)
Low64 °F (Dec 23, 6:00 AM)35% (Dec 23, 3:00 PM)29.45 "Hg (Dec 20, 5:00 PM)
Average81 °F73%29.79 "Hg
* Reported Dec 12 3:00 AM — Dec 27 3:00 AM, Asuncion, Weather by CustomWeather, © 2014

Note: Actual official high and low records may vary slightly from our data, if they occured in-between our weather recording intervals... More about our weather records

Advertising

Asuncion weather history for previous 24 hours

 ConditionsComfort  
Time TempWeatherWind HumidityBarometerVisibility
3:00 AM
Dec 27
81 °FClear.No wind79%29.80 "Hg10 mi
2:00 AM82 °FClear.6 mph74%29.80 "Hg10 mi
1:00 AM84 °FClear.9 mph70%29.80 "Hg10 mi
12:00 AM84 °FClear.10 mph74%29.80 "Hg10 mi
11:00 PM
Dec 26
86 °FClear.9 mph70%29.80 "Hg10 mi
10:00 PM88 °FClear.9 mph66%29.80 "Hg10 mi
9:00 PM86 °FClear.6 mph70%29.77 "Hg10 mi
8:00 PM88 °FClear.5 mph66%29.77 "Hg10 mi
7:00 PM91 °FSunny.8 mph59%29.77 "Hg10 mi
6:00 PM95 °FPassing clouds.10 mph53%29.77 "HgN/A
5:00 PM95 °FPassing clouds.14 mph53%29.77 "HgN/A
4:00 PM97 °FPartly sunny.12 mph53%29.80 "HgN/A
3:00 PM93 °FPartly sunny.10 mph56%29.83 "HgN/A
2:00 PM95 °FPartly sunny.12 mph56%29.89 "HgN/A
1:00 PM93 °FPartly sunny.12 mph56%29.89 "HgN/A
12:00 PM90 °FPartly sunny.10 mph67%29.92 "HgN/A
11:00 AM90 °FScattered clouds.12 mph67%29.92 "HgN/A
10:30 AM90 °FPassing clouds.10 mph67%29.92 "HgN/A
10:00 AM90 °FPassing clouds.10 mph67%29.95 "HgN/A
9:30 AM88 °FPassing clouds.10 mph70%29.95 "HgN/A
9:00 AM88 °FPassing clouds.12 mph70%29.95 "HgN/A
8:30 AM86 °FPassing clouds.12 mph75%29.95 "HgN/A
8:00 AM84 °FSunny.9 mph74%29.92 "Hg10 mi
7:00 AM82 °FSunny.6 mph79%29.92 "Hg10 mi
6:00 AM79 °FSunny.5 mph89%29.89 "Hg10 mi
5:00 AM79 °FClear.5 mph89%29.86 "Hg10 mi
Weather by CustomWeather, © 2014

See weather overviewHow to use our weather pages